Tracking 22879 objects as of 21-Apr-2021
HD Live streaming from Space Station
objects crossing your sky now

DELTA 1 DEB

Track DELTA 1 DEB now!
10-day predictions


NORAD ID: 7146
Int'l Code: 1973-086DL
Perigee: 1,458.6 km
Apogee: 1,550.1 km
Inclination: 101.8 °
Period: 115.9 minutes
Semi major axis: 7875 km
RCS: 0.1412 m2 (medium)
Launch date: November 6, 1973
Source: United States (US)
Launch site: AIR FORCE WESTERN TEST RANGE (AFWTR)

Note: This is SATELLITE DEBRIS
aabbcc
Your satellite tracking list
Your tracking list is empty




NASA's NSSDC Master Catalog

Two Line Element Set (TLE):
1 07146U 73086DL  21111.00021020 -.00000782  00000-0 -53424-2 0  9992
2 07146 101.7881  14.2322 0058087 124.2941 306.4398 12.42214554139894
Source of the keplerian elements: AFSPC